Weather in Rybkino

Russia / Republic of Mordovia     54°15′10″N   43°46′03″E
temp.,
°C
wind,
m/s
gust,
m/s
humid.,
%
clouds,
%
prec.,
mm/h
press.,
hPa
HPBL,
m
27 february, sat
sat2700:00+1w7149079 0.1 1000736
03:00+1w7139789 0.1 999749
06:00+1w71396100 0.1 997714
09:000w71297100 0.5 998702
12:00−5nw71193100 0.5 1000510
15:00−9nnw71192100 1.1 1004716
18:00−12nnw51094100 0.3 1007699
21:00−13nnw51092100 0.4 1010510
28 february, sun
sun2800:00−16nw499587 0.0 1011225
03:00−17nw489646 0.0 1013177
06:00−18nnw369712 0.0 1014127
09:00−17nnw369416 0.0 1015245
12:00−13nnw359056 0.0 1015356
15:00−11nw368973 0.0 1016484
18:00−14n239598 0.0 101622
21:00−15n229590 0.0 101920
1 march, mon
mon100:00−17n12959 0.0 102020
03:00−17nw22974 0.0 102220
06:00−18nnw129727 0.0 102320
09:00−15nw129527 0.0 102485
12:00−11wnw228930 0.0 1024239
15:00−9sw249257 0.0 1024274
18:00−7wsw3794100 0.1 1022293
21:00−9sw4996100 0.1 1021222
2 march, tue
tue200:00−5sw61193100 0.1 1017411
03:00−3sw71495100 0.8 1013543
06:00−2wsw71495100 0.9 1008600
09:000w71298100 1.9 1006770
12:000nw71196100 0.6 1005753
15:00+1nw6129099 0.8 1006896
18:00−2nw6139045 0.1 1006472
21:00−2wnw5139370 0.1 1007557
3 march, wed
wed300:00−3nw61393100 0.2 1007645
03:00−4nw5139399 0.3 1008442
06:00−5nw6129490 0.1 1009439
09:00−5nw6129394 0.1 1011617
12:00−2nw71092100 0.1 1012885
15:00−3nw71086100 0.4 10131082
18:00−5nw5128884 0.1 1013411
21:00−4wnw5129473 0.2 1015578